OBJECT AD, 63237

Orbit data source: Space-Track

You're viewing an Uncataloged Satellite

Recently launched and/or uncataloged satellites may have evolving metadata. Metadata may include but not limited to: Owner, Maufacturer, Bus, Motor, and Mission.

OBJECT AD, 63237 is a satellite in SSO that was launched on Sat, 15 Mar 2025 UTC via an FALCON 9 launch vehicle from the Air Force Western Test Range (AFWTR). Unknown objects in Earth's orbit typically refer to objects detected orbiting the Earth but have not yet been identified or cataloged. These objects could be anything from previously untracked satellites, spent rocket stages, debris from satellite collisions, or even natural meteoroids temporarily captured by Earth's gravity.

Loading next visibility...
Identifier
63237, 2025-052AD
Orbit
SSO
Last TLE update
14 hours ago
Origin
Flag of TBDTOMIO (TBD)
Manufacturer
Blue Canyon
Mission
Operational Commercial Weather
Bus & Motor
CUBESAT 6U, Unknown motor
Mass
12 kg wet, 12 kg dry
Launch date (UTC)
2025-03-15 (3 months ago)
Launch vehicle
FALCON 9
Launch site
Air Force Western Test Range (AFWTR)
Object type
Unknown
Shape & HBR
Box + 2 Pan, 1.2 m
Radar Cross Section
0.138 m², Small (<0.1 m²)

Expand to show TLE details & history

TLE from 14 hours ago
0 OBJECT AD
1 63237U 25052AD  25169.70743203  .00009562  00000-0  45590-3 0  9992
2 63237  97.4356  63.4270 0007779 357.8554   2.2646 15.19282383 14621
Epoch: 2025-06-18T16:58Z
TLE epoch observation values (Epoch: 2025-06-18T16:58:42.127Z)
Latitude
-0.00001°
Longitude
-98.43413°
Altitude
505.743 km
Speed
7.614 km/s
True Right ascension
04h 13m 42s
True Declination
0° 00' 00"
Sunlit
Object was in daylight at epoch
Visualization orbit readout
Latitude
-22.7866°
Longitude
78.99553°
Altitude
521.438 km
Speed
7.599 km/s
Apparent Right ascension
13h 11m 03s
Apparent Declination
-70° 26' 22"
Sunlit
Object is in full shadow
Visualization observer readout
Local Sidereal Time
17:21:19
Azimuth
199.882° SSW
Elevation
-29.1°
Doppler factor
1
Orbital elements
Apogee altitude
510.331 km
Perigee altitude
499.622 km
Semi-major axis
6,883.113 km
Eccentricity
0.00078
Inclination
97.4356°
RAAN
63.427°
Arg. of periapsis
357.8554°
True anomaly
Unknown
Mean anomaly
2.2646°
Eccentric anomaly
Unknown
Mean motion
3.80072 °/min
Orbital period
94.72 mins
BSTAR
0.0004559
Loading maneuver chart data...
Loading SW <> Apogee altitude chart data...
Loading historical data...
Loading historical data...
Loading historical data...
Loading historical data...
Loading historical data...
Loading historical data...
Loading historical data...

OBJECT AD Visibility forecast

Observer location: undefined°, undefined°

Span
Click to sort rows by Start time (UTC) header in descending order
Start Az.
Max El. time (UTC)
Max El. Az.
Max El.
End time (UTC)
End Az.
6 mins2025-06-19 16:48:49.693Z158.327° S2025-06-19 16:51:49.693Z98.215° ESE42.769°2025-06-19 16:54:49.693Z354.838° N
5 mins2025-06-20 05:54:49.693Z4.011° NNE2025-06-20 05:56:49.693Z266.079° W43.823°2025-06-20 05:59:49.693Z199.629° SSW
|